THORAD DELTA 1 DEB, 8406

Orbit data source: Space-Track

THORAD DELTA 1 DEB, 8406 is space debris in SSO originally from a launch on Fri, 15 Nov 1974 UTC launched from the Air Force Western Test Range (AFWTR). Debris objects in space refer to the collection of defunct objects orbiting the Earth. Examples of debris include non-operational satellites, rocket bodies, and fragments generated from explosions, collisions, or faulty payload assembly.

Loading next visibility...
Identifier
8406, 1974-089CJ
Orbit
SSO
Country
Flag of USUS
Related business
Manufacturer
Unknown
Mission
Spacecraft
Bus & Motor
Unknown
Mass
Unknown
Launch date (UTC)
1974-11-15 (51 years ago)
Launch vehicle
Unknown
Launch site
Air Force Western Test Range (AFWTR)
Object type
Payload
Rocket body
Debris
Shape & HBR
Unknown shape, 0.2 m
Radar Cross Section
Small (<0.1 m²)

Expand to show TLE details & history
Last TLE update: 2 days ago

TLE from 2 days ago
0 THORAD DELTA 1 DEB
1 08406U 74089CJ  25292.85995833  .00000311  00000-0  21000-2 0  9996
2 08406 101.3280 155.7616 0021201 309.7998  74.2250 12.57788253331822
Epoch: 2025-10-19T20:38Z
TLE epoch observation values (Epoch: 2025-10-19T20:38:20.399Z)
Latitude
23.7796°
Longitude
172.56698°
Altitude
1,430.217 km
Speed
7.15 km/s
True Right ascension
10h 02m 53s
True Declination
23° 39' 50"
Sunlit
Object was in daylight at epoch
Visualization orbit readout
Latitude
Unknown
Longitude
Unknown
Altitude
Unknown
Speed
Unknown
Apparent Right ascension
Unknown
Apparent Declination
Unknown
Sunlit
N/A
Visualization observer readout
Local Sidereal Time
06:29:50
Azimuth
Unknown
Elevation
Unknown
Doppler factor
Unknown
Orbital elements
Apogee altitude
1,446.152 km
Perigee altitude
1,413.046 km
Semi-major axis
7,807.736 km
Eccentricity
0.00212
Inclination
101.328°
RAAN
155.7616°
Arg. of periapsis
309.7998°
True anomaly
74.45896°
Mean anomaly
74.225°
Eccentric anomaly
74.34196°
Mean motion
3.14598 °/min
Orbital period
114.43 mins
BSTAR
0.0021
Loading maneuver chart data...
Computing Atmospheric mass density...

Documentation

Showing up to 5 results
|